Time,TemperatureF,DewpointF,PressureIn,WindDirection,WindDirectionDegrees,WindSpeedMPH,WindSpeedGustMPH,Humidity,HourlyPrecipIn,Conditions,Clouds,dailyrainin,SoftwareType,DateUTC
2013-01-03 00:00:00,-4.1,-10.8,30.18,NW,315,0.0,0.0,72,0.00,,---,0.00,VWS V14.01,2013-01-03 05:00:00,
2013-01-03 00:01:00,-4.1,-10.8,30.18,NW,315,0.0,0.0,72,0.00,,---,0.00,VWS V14.01,2013-01-03 05:01:00,
2013-01-03 00:02:00,-4.1,-10.8,30.18,NW,315,0.0,0.0,72,0.00,,---,0.00,VWS V14.01,2013-01-03 05:02:00,
2013-01-03 00:07:00,-4.3,-11.0,30.19,NW,315,0.0,0.0,72,0.00,,---,0.00,VWS V14.01,2013-01-03 05:07:00,
2013-01-03 00:12:00,-4.3,-11.0,30.19,NW,315,0.0,0.0,72,0.00,,---,0.00,VWS V14.01,2013-01-03 05:12:00,
2013-01-03 00:17:00,-4.3,-11.0,30.19,NW,315,0.0,0.0,72,0.00,,---,0.00,VWS V14.01,2013-01-03 05:17:00,
2013-01-03 00:22:00,-4.7,-11.4,30.18,NW,315,0.0,0.0,72,0.00,,---,0.00,VWS V14.01,2013-01-03 05:22:00,
2013-01-03 00:27:00,-4.7,-11.4,30.19,NW,315,0.0,0.0,72,0.00,,---,0.00,VWS V14.01,2013-01-03 05:27:00,
2013-01-03 00:32:00,-4.9,-11.6,30.19,NW,315,0.0,0.0,72,0.00,,---,0.00,VWS V14.01,2013-01-03 05:32:00,
2013-01-03 00:37:00,-4.9,-11.6,30.18,NW,315,0.0,0.0,72,0.00,,---,0.00,VWS V14.01,2013-01-03 05:37:00,
2013-01-03 00:42:00,-5.0,-11.7,30.18,NW,315,0.0,0.0,72,0.00,,---,0.00,VWS V14.01,2013-01-03 05:42:00,
2013-01-03 00:47:00,-5.0,-11.7,30.18,NW,315,0.0,0.0,72,0.00,,---,0.00,VWS V14.01,2013-01-03 05:47:00,
2013-01-03 00:52:00,-5.2,-11.6,30.18,NW,315,0.0,0.0,73,0.00,,---,0.00,VWS V14.01,2013-01-03 05:52:00,
2013-01-03 00:57:00,-5.2,-11.6,30.18,NW,315,0.0,0.0,73,0.00,,---,0.00,VWS V14.01,2013-01-03 05:57:00,
2013-01-03 01:02:00,-5.2,-11.9,30.17,NW,315,0.0,0.0,72,0.00,,---,0.00,VWS V14.01,2013-01-03 06:02:00,
2013-01-03 01:07:00,-5.4,-12.1,30.17,NW,315,0.0,0.0,72,0.00,,---,0.00,VWS V14.01,2013-01-03 06:07:00,
2013-01-03 01:12:00,-5.4,-12.1,30.16,NW,315,0.0,0.0,72,0.00,,---,0.00,VWS V14.01,2013-01-03 06:12:00,
2013-01-03 01:17:00,-5.4,-12.1,30.16,NW,315,0.0,0.0,72,0.00,,---,0.00,VWS V14.01,2013-01-03 06:17:00,
2013-01-03 01:22:00,-5.6,-12.3,30.17,NW,315,0.0,0.0,72,0.00,,---,0.00,VWS V14.01,2013-01-03 06:22:00,
2013-01-03 01:27:00,-5.8,-12.5,30.17,NW,315,0.0,0.0,72,0.00,,---,0.00,VWS V14.01,2013-01-03 06:27:00,
2013-01-03 01:32:00,-5.9,-12.3,30.18,NW,315,0.0,0.0,73,0.00,,---,0.00,VWS V14.01,2013-01-03 06:32:00,
2013-01-03 01:37:00,-5.9,-12.3,30.17,NW,315,0.0,0.0,73,0.00,,---,0.00,VWS V14.01,2013-01-03 06:37:00,
2013-01-03 01:42:00,-6.1,-12.5,30.17,NW,315,0.0,0.0,73,0.00,,---,0.00,VWS V14.01,2013-01-03 06:42:00,
2013-01-03 01:47:00,-6.1,-12.5,30.18,NW,315,0.0,0.0,73,0.00,,---,0.00,VWS V14.01,2013-01-03 06:47:00,
2013-01-03 01:52:00,-6.3,-12.7,30.18,NW,315,0.0,0.0,73,0.00,,---,0.00,VWS V14.01,2013-01-03 06:52:00,
2013-01-03 01:57:00,-6.5,-12.9,30.18,NW,315,0.0,0.0,73,0.00,,---,0.00,VWS V14.01,2013-01-03 06:57:00,
2013-01-03 02:02:00,-6.5,-12.9,30.18,NW,315,0.0,0.0,73,0.00,,---,0.00,VWS V14.01,2013-01-03 07:02:00,
2013-01-03 02:07:00,-6.5,-12.9,30.18,NW,315,0.0,0.0,73,0.00,,---,0.00,VWS V14.01,2013-01-03 07:07:00,
2013-01-03 02:12:00,-6.7,-13.1,30.17,NW,315,0.0,0.0,73,0.00,,---,0.00,VWS V14.01,2013-01-03 07:12:00,
2013-01-03 02:17:00,-6.7,-13.1,30.17,NW,315,0.0,0.0,73,0.00,,---,0.00,VWS V14.01,2013-01-03 07:17:00,
2013-01-03 02:22:00,-7.0,-13.4,30.17,NW,315,0.0,0.0,73,0.00,,---,0.00,VWS V14.01,2013-01-03 07:22:00,
2013-01-03 02:27:00,-7.2,-13.6,30.17,NW,315,0.0,0.0,73,0.00,,---,0.00,VWS V14.01,2013-01-03 07:27:00,
2013-01-03 02:32:00,-7.2,-13.6,30.17,NW,315,0.0,0.0,73,0.00,,---,0.00,VWS V14.01,2013-01-03 07:32:00,
2013-01-03 02:37:00,-7.2,-13.6,30.17,NW,315,0.0,0.0,73,0.00,,---,0.00,VWS V14.01,2013-01-03 07:37:00,
2013-01-03 02:42:00,-7.4,-13.8,30.17,NW,315,0.0,0.0,73,0.00,,---,0.00,VWS V14.01,2013-01-03 07:42:00,
2013-01-03 02:47:00,-7.4,-13.8,30.17,NW,315,0.0,0.0,73,0.00,,---,0.00,VWS V14.01,2013-01-03 07:47:00,
2013-01-03 02:52:00,-7.4,-13.8,30.17,NW,315,0.0,0.0,73,0.00,,---,0.00,VWS V14.01,2013-01-03 07:52:00,
2013-01-03 02:57:00,-7.4,-13.8,30.17,NW,315,0.0,0.0,73,0.00,,---,0.00,VWS V14.01,2013-01-03 07:57:00,
2013-01-03 03:02:00,-7.4,-13.8,30.17,NW,315,0.0,0.0,73,0.00,,---,0.00,VWS V14.01,2013-01-03 08:02:00,
2013-01-03 03:07:00,-7.7,-14.0,30.17,NW,315,0.0,0.0,73,0.00,,---,0.00,VWS V14.01,2013-01-03 08:07:00,
2013-01-03 03:12:00,-7.7,-14.0,30.17,NW,315,0.0,0.0,73,0.00,,---,0.00,VWS V14.01,2013-01-03 08:12:00,
2013-01-03 03:17:00,-7.7,-14.0,30.17,NW,315,0.0,0.0,73,0.00,,---,0.00,VWS V14.01,2013-01-03 08:17:00,
2013-01-03 03:22:00,-7.9,-14.2,30.16,NW,315,0.0,0.0,73,0.00,,---,0.00,VWS V14.01,2013-01-03 08:22:00,
2013-01-03 03:27:00,-7.9,-14.2,30.17,NW,315,0.0,0.0,73,0.00,,---,0.00,VWS V14.01,2013-01-03 08:27:00,
2013-01-03 03:32:00,-8.3,-14.6,30.16,NW,315,0.0,0.0,73,0.00,,---,0.00,VWS V14.01,2013-01-03 08:32:00,
2013-01-03 03:37:00,-8.3,-14.6,30.15,NW,315,0.0,0.0,73,0.00,,---,0.00,VWS V14.01,2013-01-03 08:37:00,
2013-01-03 03:42:00,-8.3,-14.6,30.15,NW,315,0.0,0.0,73,0.00,,---,0.00,VWS V14.01,2013-01-03 08:42:00,
2013-01-03 03:47:00,-8.3,-14.6,30.15,NW,315,0.0,0.0,73,0.00,,---,0.00,VWS V14.01,2013-01-03 08:47:00,
2013-01-03 03:52:00,-8.5,-14.8,30.15,NW,315,0.0,0.0,73,0.00,,---,0.00,VWS V14.01,2013-01-03 08:52:00,
2013-01-03 03:57:00,-8.6,-14.9,30.15,NW,315,0.0,0.0,73,0.00,,---,0.00,VWS V14.01,2013-01-03 08:57:00,
2013-01-03 04:02:00,-8.6,-14.9,30.15,NW,315,0.0,0.0,73,0.00,,---,0.00,VWS V14.01,2013-01-03 09:02:00,
2013-01-03 04:07:00,-8.8,-15.1,30.15,NW,315,0.0,0.0,73,0.00,,---,0.00,VWS V14.01,2013-01-03 09:07:00,
2013-01-03 04:12:00,-8.8,-15.1,30.15,NW,315,0.0,0.0,73,0.00,,---,0.00,VWS V14.01,2013-01-03 09:12:00,
2013-01-03 04:17:00,-8.8,-15.1,30.15,NW,315,0.0,0.0,73,0.00,,---,0.00,VWS V14.01,2013-01-03 09:17:00,
2013-01-03 04:22:00,-9.0,-15.3,30.15,NW,315,0.0,0.0,73,0.00,,---,0.00,VWS V14.01,2013-01-03 09:22:00,
2013-01-03 04:27:00,-9.0,-15.3,30.15,NW,315,0.0,0.0,73,0.00,,---,0.00,VWS V14.01,2013-01-03 09:27:00,
2013-01-03 04:32:00,-9.2,-15.5,30.15,NW,315,0.0,0.0,73,0.00,,---,0.00,VWS V14.01,2013-01-03 09:32:00,
2013-01-03 04:37:00,-9.2,-15.5,30.15,NW,315,0.0,0.0,73,0.00,,---,0.00,VWS V14.01,2013-01-03 09:37:00,
2013-01-03 04:42:00,-9.4,-15.7,30.15,NW,315,0.0,0.0,73,0.00,,---,0.00,VWS V14.01,2013-01-03 09:42:00,
2013-01-03 04:47:00,-9.5,-15.8,30.15,NW,315,0.0,0.0,73,0.00,,---,0.00,VWS V14.01,2013-01-03 09:47:00,
2013-01-03 04:52:00,-9.5,-15.8,30.15,NW,315,0.0,0.0,73,0.00,,---,0.00,VWS V14.01,2013-01-03 09:52:00,
2013-01-03 04:57:00,-9.7,-16.0,30.15,NW,315,0.0,0.0,73,0.00,,---,0.00,VWS V14.01,2013-01-03 09:57:00,
2013-01-03 05:02:00,-10.1,-16.4,30.15,NW,315,0.0,0.0,73,0.00,,---,0.00,VWS V14.01,2013-01-03 10:02:00,
2013-01-03 05:07:00,-10.1,-16.4,30.15,NW,315,0.0,0.0,73,0.00,,---,0.00,VWS V14.01,2013-01-03 10:07:00,
2013-01-03 05:12:00,-10.1,-16.4,30.15,NW,315,0.0,0.0,73,0.00,,---,0.00,VWS V14.01,2013-01-03 10:12:00,
2013-01-03 05:17:00,-10.1,-16.4,30.15,NW,315,0.0,0.0,73,0.00,,---,0.00,VWS V14.01,2013-01-03 10:17:00,
2013-01-03 05:22:00,-10.1,-16.4,30.15,NW,315,0.0,0.0,73,0.00,,---,0.00,VWS V14.01,2013-01-03 10:22:00,
2013-01-03 05:27:00,-10.3,-16.5,30.15,NW,315,0.0,0.0,73,0.00,,---,0.00,VWS V14.01,2013-01-03 10:27:00,
2013-01-03 05:32:00,-10.4,-16.6,30.15,NW,315,0.0,0.0,73,0.00,,---,0.00,VWS V14.01,2013-01-03 10:32:00,
2013-01-03 05:37:00,-10.4,-16.6,30.15,NW,315,0.0,0.0,73,0.00,,---,0.00,VWS V14.01,2013-01-03 10:37:00,
2013-01-03 05:42:00,-10.6,-16.8,30.16,NW,315,0.0,0.0,73,0.00,,---,0.00,VWS V14.01,2013-01-03 10:42:00,
2013-01-03 05:47:00,-10.8,-17.0,30.16,NW,315,0.0,0.0,73,0.00,,---,0.00,VWS V14.01,2013-01-03 10:47:00,
2013-01-03 05:52:00,-10.8,-17.0,30.16,NW,315,0.0,0.0,73,0.00,,---,0.00,VWS V14.01,2013-01-03 10:52:00,
2013-01-03 05:57:00,-10.8,-17.0,30.16,NW,315,0.0,0.0,73,0.00,,---,0.00,VWS V14.01,2013-01-03 10:57:00,
2013-01-03 06:02:00,-11.0,-17.2,30.15,NW,315,0.0,0.0,73,0.00,,---,0.00,VWS V14.01,2013-01-03 11:02:00,
2013-01-03 06:07:00,-11.0,-17.2,30.15,NW,315,0.0,0.0,73,0.00,,---,0.00,VWS V14.01,2013-01-03 11:07:00,
2013-01-03 06:12:00,-11.0,-17.2,30.15,NW,315,0.0,0.0,73,0.00,,---,0.00,VWS V14.01,2013-01-03 11:12:00,
2013-01-03 06:17:00,-11.3,-17.5,30.15,NW,315,0.0,0.0,73,0.00,,---,0.00,VWS V14.01,2013-01-03 11:17:00,
2013-01-03 06:22:00,-11.3,-17.5,30.16,NW,315,0.0,0.0,73,0.00,,---,0.00,VWS V14.01,2013-01-03 11:22:00,
2013-01-03 06:27:00,-11.5,-17.7,30.16,NW,315,0.0,0.0,73,0.00,,---,0.00,VWS V14.01,2013-01-03 11:27:00,
2013-01-03 06:32:00,-11.5,-17.7,30.16,NW,315,0.0,0.0,73,0.00,,---,0.00,VWS V14.01,2013-01-03 11:32:00,
2013-01-03 06:37:00,-11.9,-18.1,30.15,NW,315,0.0,0.0,73,0.00,,---,0.00,VWS V14.01,2013-01-03 11:37:00,
2013-01-03 06:42:00,-11.5,-17.7,30.15,NW,315,0.0,0.0,73,0.00,,---,0.00,VWS V14.01,2013-01-03 11:42:00,
2013-01-03 06:47:00,-11.5,-17.7,30.15,NW,315,0.0,0.0,73,0.00,,---,0.00,VWS V14.01,2013-01-03 11:47:00,
2013-01-03 06:52:00,-11.5,-17.7,30.15,NW,315,0.0,0.0,73,0.00,,---,0.00,VWS V14.01,2013-01-03 11:52:00,
2013-01-03 06:57:00,-11.5,-17.7,30.15,NW,315,0.0,0.0,73,0.00,,---,0.00,VWS V14.01,2013-01-03 11:57:00,
2013-01-03 07:02:00,-11.5,-17.7,30.15,NW,315,0.0,0.0,73,0.00,,---,0.00,VWS V14.01,2013-01-03 12:02:00,
2013-01-03 07:07:00,-11.7,-17.6,30.15,NW,315,0.0,0.0,74,0.00,,---,0.00,VWS V14.01,2013-01-03 12:07:00,
2013-01-03 07:12:00,-11.9,-17.8,30.15,NW,315,0.0,0.0,74,0.00,,---,0.00,VWS V14.01,2013-01-03 12:12:00,
2013-01-03 07:17:00,-11.9,-17.8,30.14,NW,315,0.0,0.0,74,0.00,,---,0.00,VWS V14.01,2013-01-03 12:17:00,
2013-01-03 07:22:00,-11.9,-17.8,30.14,NW,315,0.0,0.0,74,0.00,,---,0.00,VWS V14.01,2013-01-03 12:22:00,
2013-01-03 07:27:00,-11.9,-17.8,30.14,NW,315,0.0,0.0,74,0.00,,---,0.00,VWS V14.01,2013-01-03 12:27:00,
2013-01-03 07:32:00,-11.9,-17.8,30.13,NW,315,0.0,0.0,74,0.00,,---,0.00,VWS V14.01,2013-01-03 12:32:00,
2013-01-03 07:37:00,-11.9,-17.8,30.13,NW,315,0.0,0.0,74,0.00,,---,0.00,VWS V14.01,2013-01-03 12:37:00,
2013-01-03 07:42:00,-11.9,-17.8,30.14,NW,315,0.0,0.0,74,0.00,,---,0.00,VWS V14.01,2013-01-03 12:42:00,
2013-01-03 07:47:00,-11.9,-17.8,30.13,NW,315,0.0,0.0,74,0.00,,---,0.00,VWS V14.01,2013-01-03 12:47:00,
2013-01-03 07:52:00,-12.1,-18.0,30.13,NW,315,0.0,0.0,74,0.00,,---,0.00,VWS V14.01,2013-01-03 12:52:00,
2013-01-03 07:57:00,-12.1,-18.0,30.13,NW,315,0.0,0.0,74,0.00,,---,0.00,VWS V14.01,2013-01-03 12:57:00,
2013-01-03 08:02:00,-12.1,-18.0,30.13,NW,315,0.0,0.0,74,0.00,,---,0.00,VWS V14.01,2013-01-03 13:02:00,
2013-01-03 08:07:00,-12.2,-18.1,30.13,NW,315,0.0,0.0,74,0.00,,---,0.00,VWS V14.01,2013-01-03 13:07:00,
2013-01-03 08:12:00,-12.2,-18.1,30.13,NW,315,0.0,0.0,74,0.00,,---,0.00,VWS V14.01,2013-01-03 13:12:00,
2013-01-03 08:17:00,-12.2,-18.1,30.13,NW,315,0.0,0.0,74,0.00,,---,0.00,VWS V14.01,2013-01-03 13:17:00,
2013-01-03 08:22:00,-12.1,-18.0,30.13,NW,315,0.0,0.0,74,0.00,,---,0.00,VWS V14.01,2013-01-03 13:22:00,
2013-01-03 08:27:00,-12.1,-18.0,30.13,NW,315,0.0,0.0,74,0.00,,---,0.00,VWS V14.01,2013-01-03 13:27:00,
2013-01-03 08:32:00,-12.1,-18.0,30.13,NW,315,0.0,0.0,74,0.00,,---,0.00,VWS V14.01,2013-01-03 13:32:00,
2013-01-03 08:37:00,-12.1,-18.0,30.13,NW,315,0.0,0.0,74,0.00,,---,0.00,VWS V14.01,2013-01-03 13:37:00,
2013-01-03 08:42:00,-12.1,-18.0,30.13,NW,315,0.0,0.0,74,0.00,,---,0.00,VWS V14.01,2013-01-03 13:42:00,
2013-01-03 08:47:00,-12.1,-18.0,30.13,NW,315,0.0,0.0,74,0.00,,---,0.00,VWS V14.01,2013-01-03 13:47:00,
2013-01-03 08:52:00,-12.1,-18.0,30.13,NW,315,0.0,0.0,74,0.00,,---,0.00,VWS V14.01,2013-01-03 13:52:00,
2013-01-03 08:57:00,-12.1,-18.0,30.13,NW,315,0.0,0.0,74,0.00,,---,0.00,VWS V14.01,2013-01-03 13:57:00,
2013-01-03 09:02:00,-12.1,-18.0,30.13,NW,315,0.0,0.0,74,0.00,,---,0.00,VWS V14.01,2013-01-03 14:02:00,
2013-01-03 09:07:00,-12.1,-18.0,30.13,NW,315,0.0,0.0,74,0.00,,---,0.00,VWS V14.01,2013-01-03 14:07:00,
2013-01-03 09:12:00,-12.1,-18.0,30.12,NW,315,0.0,0.0,74,0.00,,---,0.00,VWS V14.01,2013-01-03 14:12:00,
2013-01-03 09:17:00,-12.1,-18.0,30.12,NW,315,0.0,0.0,74,0.00,,---,0.00,VWS V14.01,2013-01-03 14:17:00,
2013-01-03 09:22:00,-11.9,-17.6,30.12,NW,315,0.0,0.0,75,0.00,,---,0.00,VWS V14.01,2013-01-03 14:22:00,
2013-01-03 09:27:00,-11.9,-17.6,30.13,NW,315,0.0,0.0,75,0.00,,---,0.00,VWS V14.01,2013-01-03 14:27:00,
2013-01-03 09:32:00,-11.9,-17.6,30.13,NW,315,0.0,0.0,75,0.00,,---,0.00,VWS V14.01,2013-01-03 14:32:00,
2013-01-03 09:37:00,-11.5,-17.2,30.12,NW,315,0.0,0.0,75,0.00,,---,0.00,VWS V14.01,2013-01-03 14:37:00,
2013-01-03 09:42:00,-11.5,-17.2,30.12,NW,315,0.0,0.0,75,0.00,,---,0.00,VWS V14.01,2013-01-03 14:42:00,
2013-01-03 09:47:00,-11.3,-17.0,30.12,NW,315,0.0,0.0,75,0.00,,---,0.00,VWS V14.01,2013-01-03 14:47:00,
2013-01-03 09:52:00,-11.0,-16.7,30.12,NW,315,0.0,0.0,75,0.00,,---,0.00,VWS V14.01,2013-01-03 14:52:00,
2013-01-03 09:57:00,-10.6,-16.3,30.12,NW,315,0.0,0.0,75,0.00,,---,0.00,VWS V14.01,2013-01-03 14:57:00,
2013-01-03 10:02:00,-10.4,-16.1,30.12,NW,315,0.0,0.0,75,0.00,,---,0.00,VWS V14.01,2013-01-03 15:02:00,
2013-01-03 10:07:00,-10.1,-15.8,30.12,NW,315,0.0,0.0,75,0.00,,---,0.00,VWS V14.01,2013-01-03 15:07:00,
2013-01-03 10:12:00,-9.7,-15.2,30.12,NW,315,0.0,0.0,76,0.00,,---,0.00,VWS V14.01,2013-01-03 15:12:00,
2013-01-03 10:17:00,-9.4,-14.9,30.12,NW,315,0.0,0.0,76,0.00,,---,0.00,VWS V14.01,2013-01-03 15:17:00,
2013-01-03 10:22:00,-8.5,-14.0,30.12,NW,315,0.0,0.0,76,0.00,,---,0.00,VWS V14.01,2013-01-03 15:22:00,
2013-01-03 10:27:00,-7.7,-13.0,30.12,NW,315,0.0,0.0,77,0.00,,---,0.00,VWS V14.01,2013-01-03 15:27:00,
2013-01-03 10:32:00,-7.0,-12.3,30.12,NW,315,0.0,0.0,77,0.00,,---,0.00,VWS V14.01,2013-01-03 15:32:00,
2013-01-03 10:37:00,-6.1,-11.2,30.11,NW,315,0.0,0.0,78,0.00,,---,0.00,VWS V14.01,2013-01-03 15:37:00,
2013-01-03 10:42:00,-5.8,-11.1,30.11,NW,315,0.0,0.0,77,0.00,,---,0.00,VWS V14.01,2013-01-03 15:42:00,
2013-01-03 10:47:00,-5.2,-10.5,30.12,NW,315,0.0,0.0,77,0.00,,---,0.00,VWS V14.01,2013-01-03 15:47:00,
2013-01-03 10:52:00,-4.9,-10.2,30.11,NW,315,0.0,0.0,77,0.00,,---,0.00,VWS V14.01,2013-01-03 15:52:00,
2013-01-03 10:57:00,-4.5,-9.9,30.11,NW,315,0.0,0.0,77,0.00,,---,0.00,VWS V14.01,2013-01-03 15:57:00,
2013-01-03 11:03:00,-4.1,-9.5,30.10,NW,315,0.0,0.0,77,0.00,,---,0.00,VWS V14.01,2013-01-03 16:03:00,
2013-01-03 11:08:00,-3.6,-8.7,30.09,NW,315,0.0,0.0,78,0.00,,---,0.00,VWS V14.01,2013-01-03 16:08:00,
2013-01-03 11:13:00,-3.2,-8.3,30.09,NW,315,0.0,0.0,78,0.00,,---,0.00,VWS V14.01,2013-01-03 16:13:00,
2013-01-03 11:18:00,-2.9,-8.0,30.09,NW,315,0.0,0.0,78,0.00,,---,0.00,VWS V14.01,2013-01-03 16:18:00,
2013-01-03 11:23:00,-2.3,-7.5,30.08,NW,315,0.0,0.0,78,0.00,,---,0.00,VWS V14.01,2013-01-03 16:23:00,
2013-01-03 11:28:00,-1.8,-7.0,30.08,NW,315,0.0,0.0,78,0.00,,---,0.00,VWS V14.01,2013-01-03 16:28:00,
2013-01-03 11:33:00,-1.4,-6.6,30.08,NW,315,0.0,0.0,78,0.00,,---,0.00,VWS V14.01,2013-01-03 16:33:00,
2013-01-03 11:38:00,-0.7,-5.9,30.07,NW,315,0.0,0.0,78,0.00,,---,0.00,VWS V14.01,2013-01-03 16:38:00,
2013-01-03 11:43:00,-0.5,-5.7,30.07,NW,315,0.0,0.0,78,0.00,,---,0.00,VWS V14.01,2013-01-03 16:43:00,
2013-01-03 11:48:00,-0.2,-5.4,30.07,NW,315,0.0,0.0,78,0.00,,---,0.00,VWS V14.01,2013-01-03 16:48:00,
2013-01-03 11:53:00,0.3,-4.9,30.07,NW,315,0.0,0.0,78,0.00,,---,0.00,VWS V14.01,2013-01-03 16:53:00,
2013-01-03 11:58:00,0.8,-4.4,30.06,NW,315,0.0,0.0,78,0.00,,---,0.00,VWS V14.01,2013-01-03 16:58:00,
2013-01-03 12:03:00,1.2,-4.1,30.07,NW,315,0.0,0.0,78,0.00,,---,0.00,VWS V14.01,2013-01-03 17:03:00,
2013-01-03 12:08:00,1.7,-3.6,30.06,NW,315,0.0,0.0,78,0.00,,---,0.00,VWS V14.01,2013-01-03 17:08:00,
2013-01-03 12:13:00,2.1,-3.2,30.06,NW,315,0.0,0.0,78,0.00,,---,0.00,VWS V14.01,2013-01-03 17:13:00,
2013-01-03 12:18:00,2.4,-2.9,30.06,ENE,68,0.0,0.0,78,0.00,,---,0.00,VWS V14.01,2013-01-03 17:18:00,
2013-01-03 12:23:00,3.0,-2.3,30.05,ENE,68,0.0,0.0,78,0.00,,---,0.00,VWS V14.01,2013-01-03 17:23:00,
2013-01-03 12:28:00,3.3,-2.0,30.04,ENE,68,0.0,0.0,78,0.00,,---,0.00,VWS V14.01,2013-01-03 17:28:00,
2013-01-03 12:33:00,3.9,-1.1,30.04,ENE,68,0.0,0.0,79,0.00,,---,0.00,VWS V14.01,2013-01-03 17:33:00,
2013-01-03 12:38:00,4.6,-0.5,30.04,ENE,68,0.0,0.0,79,0.00,,---,0.00,VWS V14.01,2013-01-03 17:38:00,
2013-01-03 12:43:00,5.0,-0.1,30.04,ENE,68,0.0,0.0,79,0.00,,---,0.00,VWS V14.01,2013-01-03 17:43:00,
2013-01-03 12:48:00,5.5,0.4,30.04,ENE,68,0.0,0.0,79,0.00,,---,0.00,VWS V14.01,2013-01-03 17:48:00,
2013-01-03 12:53:00,6.4,1.3,30.03,North,0,0.0,0.0,79,0.00,,---,0.00,VWS V14.01,2013-01-03 17:53:00,
2013-01-03 12:58:00,6.6,1.8,30.03,NNE,22,0.0,0.0,80,0.00,,---,0.00,VWS V14.01,2013-01-03 17:58:00,
2013-01-03 13:03:00,7.3,2.4,30.03,North,0,0.0,0.0,80,0.00,,---,0.00,VWS V14.01,2013-01-03 18:03:00,
2013-01-03 13:08:00,7.7,2.8,30.02,NNW,338,0.0,0.0,80,0.00,,---,0.00,VWS V14.01,2013-01-03 18:08:00,
2013-01-03 13:13:00,8.2,3.3,30.02,NNW,338,0.0,0.0,80,0.00,,---,0.00,VWS V14.01,2013-01-03 18:13:00,
2013-01-03 13:18:00,8.4,3.5,30.02,East,90,0.0,0.0,80,0.00,,---,0.00,VWS V14.01,2013-01-03 18:18:00,
2013-01-03 13:23:00,9.1,4.2,30.02,NNE,22,0.0,0.0,80,0.00,,---,0.00,VWS V14.01,2013-01-03 18:23:00,
2013-01-03 13:28:00,9.5,4.6,30.02,North,0,0.0,0.0,80,0.00,,---,0.00,VWS V14.01,2013-01-03 18:28:00,
2013-01-03 13:33:00,9.6,4.7,30.02,NE,45,0.0,0.0,80,0.00,,---,0.00,VWS V14.01,2013-01-03 18:33:00,
2013-01-03 13:38:00,10.0,5.1,30.01,North,0,0.0,0.0,80,0.00,,---,0.00,VWS V14.01,2013-01-03 18:38:00,
2013-01-03 13:43:00,10.2,5.3,30.01,NNW,338,0.0,0.0,80,0.00,,---,0.00,VWS V14.01,2013-01-03 18:43:00,
2013-01-03 13:48:00,10.5,5.6,30.01,NNW,338,0.0,0.0,80,0.00,,---,0.00,VWS V14.01,2013-01-03 18:48:00,
2013-01-03 13:53:00,10.9,5.9,30.00,NNE,22,0.0,0.0,80,0.00,,---,0.00,VWS V14.01,2013-01-03 18:53:00,
2013-01-03 13:58:00,11.1,6.2,30.00,North,0,0.0,0.0,80,0.00,,---,0.00,VWS V14.01,2013-01-03 18:58:00,
2013-01-03 14:03:00,11.1,6.2,30.00,WNW,292,0.0,0.0,80,0.00,,---,0.00,VWS V14.01,2013-01-03 19:03:00,
2013-01-03 14:08:00,11.4,6.4,29.99,NNW,338,0.0,0.0,80,0.00,,---,0.00,VWS V14.01,2013-01-03 19:08:00,
2013-01-03 14:13:00,11.8,6.8,30.00,NNE,22,0.0,0.0,80,0.00,,---,0.00,VWS V14.01,2013-01-03 19:13:00,
2013-01-03 14:18:00,12.0,7.0,29.99,NNW,338,0.0,0.0,80,0.00,,---,0.00,VWS V14.01,2013-01-03 19:18:00,
2013-01-03 15:21:00,13.4,8.4,29.99,NW,315,0.0,0.0,80,0.00,,---,0.00,VWS V14.01,2013-01-03 20:21:00,
2013-01-03 15:26:00,13.6,8.6,29.99,WNW,292,0.0,0.0,80,0.00,,---,0.00,VWS V14.01,2013-01-03 20:26:00,
2013-01-03 15:31:00,13.6,8.6,29.99,NNW,338,0.0,0.0,80,0.00,,---,0.00,VWS V14.01,2013-01-03 20:31:00,
2013-01-03 15:36:00,13.6,8.6,29.99,NNW,338,0.0,0.0,80,0.00,,---,0.00,VWS V14.01,2013-01-03 20:36:00,
2013-01-03 15:41:00,13.8,8.8,29.99,NNW,338,0.0,0.0,80,0.00,,---,0.00,VWS V14.01,2013-01-03 20:41:00,
2013-01-03 15:46:00,13.8,9.1,29.98,NNW,338,0.0,0.0,81,0.00,,---,0.00,VWS V14.01,2013-01-03 20:46:00,
2013-01-03 15:51:00,14.0,9.3,29.98,NE,45,0.0,0.0,81,0.00,,---,0.00,VWS V14.01,2013-01-03 20:51:00,
2013-01-03 15:56:00,14.1,9.4,29.98,NE,45,0.0,0.0,81,0.00,,---,0.00,VWS V14.01,2013-01-03 20:56:00,
2013-01-03 16:01:00,14.1,9.4,29.98,North,0,0.0,0.0,81,0.00,,---,0.00,VWS V14.01,2013-01-03 21:01:00,
2013-01-03 16:06:00,14.1,9.4,29.98,NNW,338,0.0,0.0,81,0.00,,---,0.00,VWS V14.01,2013-01-03 21:06:00,
2013-01-03 16:11:00,14.1,9.4,29.98,ESE,112,0.0,0.0,81,0.00,,---,0.00,VWS V14.01,2013-01-03 21:11:00,
2013-01-03 16:16:00,14.5,9.7,29.98,SSE,158,0.0,0.0,81,0.00,,---,0.00,VWS V14.01,2013-01-03 21:16:00,
2013-01-03 16:21:00,14.5,9.7,29.97,SSE,158,0.0,0.0,81,0.00,,---,0.00,VWS V14.01,2013-01-03 21:21:00,
2013-01-03 16:26:00,14.7,9.9,29.97,WNW,292,0.0,0.0,81,0.00,,---,0.00,VWS V14.01,2013-01-03 21:26:00,
2013-01-03 16:31:00,14.7,9.9,29.97,NW,315,0.0,0.0,81,0.00,,---,0.00,VWS V14.01,2013-01-03 21:31:00,
2013-01-03 16:36:00,14.7,9.9,29.98,NW,315,0.0,0.0,81,0.00,,---,0.00,VWS V14.01,2013-01-03 21:36:00,
2013-01-03 16:41:00,14.7,9.9,29.97,SW,225,0.0,0.0,81,0.00,,---,0.00,VWS V14.01,2013-01-03 21:41:00,
2013-01-03 16:46:00,14.9,10.1,29.98,West,270,0.0,0.0,81,0.00,,---,0.00,VWS V14.01,2013-01-03 21:46:00,
2013-01-03 16:51:00,15.0,10.2,29.98,WNW,292,0.0,0.0,81,0.00,,---,0.00,VWS V14.01,2013-01-03 21:51:00,
2013-01-03 16:56:00,15.0,10.2,29.97,WSW,248,0.0,0.0,81,0.00,,---,0.00,VWS V14.01,2013-01-03 21:56:00,
2013-01-03 17:01:00,15.0,10.2,29.97,WSW,248,0.0,0.0,81,0.00,,---,0.00,VWS V14.01,2013-01-03 22:01:00,
2013-01-03 17:06:00,15.2,10.4,29.97,WSW,248,0.0,0.0,81,0.00,,---,0.00,VWS V14.01,2013-01-03 22:06:00,
2013-01-03 17:11:00,15.2,10.4,29.97,WSW,248,0.0,0.0,81,0.00,,---,0.00,VWS V14.01,2013-01-03 22:11:00,
2013-01-03 17:16:00,15.2,10.4,29.97,WSW,248,0.0,0.0,81,0.00,,---,0.00,VWS V14.01,2013-01-03 22:16:00,
2013-01-03 17:21:00,15.2,10.7,29.97,WSW,248,0.0,0.0,82,0.00,,---,0.00,VWS V14.01,2013-01-03 22:21:00,
2013-01-03 17:26:00,15.4,10.9,29.98,WSW,248,0.0,0.0,82,0.00,,---,0.00,VWS V14.01,2013-01-03 22:26:00,
2013-01-03 17:31:00,15.4,10.9,29.98,WSW,248,0.0,0.0,82,0.00,,---,0.00,VWS V14.01,2013-01-03 22:31:00,
2013-01-03 17:36:00,15.4,10.9,29.98,WSW,248,0.0,0.0,82,0.00,,---,0.00,VWS V14.01,2013-01-03 22:36:00,
2013-01-03 17:41:00,15.4,10.9,29.98,WSW,248,0.0,0.0,82,0.00,,---,0.00,VWS V14.01,2013-01-03 22:41:00,
2013-01-03 17:46:00,15.4,10.9,29.97,WSW,248,0.0,0.0,82,0.00,,---,0.00,VWS V14.01,2013-01-03 22:46:00,
2013-01-03 17:51:00,15.4,10.9,29.97,WSW,248,0.0,0.0,82,0.00,,---,0.00,VWS V14.01,2013-01-03 22:51:00,
2013-01-03 17:56:00,15.4,10.9,29.97,WSW,248,0.0,0.0,82,0.00,,---,0.00,VWS V14.01,2013-01-03 22:56:00,
2013-01-03 18:01:00,15.4,10.9,29.97,WSW,248,0.0,0.0,82,0.00,,---,0.00,VWS V14.01,2013-01-03 23:01:00,
2013-01-03 18:06:00,15.4,10.9,29.97,South,180,0.0,0.0,82,0.00,,---,0.00,VWS V14.01,2013-01-03 23:06:00,
2013-01-03 18:11:00,15.4,10.9,29.97,South,180,0.0,0.0,82,0.00,,---,0.00,VWS V14.01,2013-01-03 23:11:00,
2013-01-03 18:16:00,15.6,11.1,29.97,South,180,0.0,0.0,82,0.00,,---,0.00,VWS V14.01,2013-01-03 23:16:00,
2013-01-03 18:21:00,15.6,11.1,29.97,NNW,338,0.0,0.0,82,0.00,,---,0.00,VWS V14.01,2013-01-03 23:21:00,
2013-01-03 18:26:00,15.6,11.1,29.97,NW,315,0.0,0.0,82,0.00,,---,0.00,VWS V14.01,2013-01-03 23:26:00,
2013-01-03 18:31:00,15.6,11.1,29.97,NW,315,0.0,0.0,82,0.00,,---,0.00,VWS V14.01,2013-01-03 23:31:00,
2013-01-03 18:36:00,15.6,11.4,29.96,NW,315,0.0,0.0,83,0.00,,---,0.00,VWS V14.01,2013-01-03 23:36:00,
2013-01-03 18:41:00,15.8,11.6,29.97,NW,315,0.0,0.0,83,0.00,,---,0.00,VWS V14.01,2013-01-03 23:41:00,
2013-01-03 18:46:00,15.9,11.7,29.96,NNW,338,0.0,0.0,83,0.00,,---,0.00,VWS V14.01,2013-01-03 23:46:00,
2013-01-03 18:51:00,15.9,11.7,29.96,NNW,338,0.0,0.0,83,0.00,,---,0.00,VWS V14.01,2013-01-03 23:51:00,
2013-01-03 18:56:00,15.9,11.7,29.96,NE,45,0.0,0.0,83,0.00,,---,0.00,VWS V14.01,2013-01-03 23:56:00,
2013-01-03 19:01:00,15.9,11.7,29.96,East,90,0.0,0.0,83,0.00,,---,0.00,VWS V14.01,2013-01-04 00:01:00,
2013-01-03 19:06:00,16.1,11.9,29.96,East,90,0.0,0.0,83,0.00,,---,0.00,VWS V14.01,2013-01-04 00:06:00,
2013-01-03 19:11:00,16.1,11.9,29.96,East,90,0.0,0.0,83,0.00,,---,0.00,VWS V14.01,2013-01-04 00:11:00,
2013-01-03 19:16:00,16.1,11.9,29.96,East,90,0.0,0.0,83,0.00,,---,0.00,VWS V14.01,2013-01-04 00:16:00,
2013-01-03 19:21:00,16.3,12.1,29.96,East,90,0.0,0.0,83,0.00,,---,0.00,VWS V14.01,2013-01-04 00:21:00,
2013-01-03 19:26:00,16.3,12.1,29.96,East,90,0.0,0.0,83,0.00,,---,0.00,VWS V14.01,2013-01-04 00:26:00,
2013-01-03 19:31:00,16.3,12.1,29.95,East,90,0.0,0.0,83,0.00,,---,0.00,VWS V14.01,2013-01-04 00:31:00,
2013-01-03 19:36:00,16.3,12.1,29.95,ESE,112,0.0,0.0,83,0.00,,---,0.00,VWS V14.01,2013-01-04 00:36:00,
2013-01-03 19:41:00,16.3,12.1,29.95,ESE,112,0.0,0.0,83,0.00,,---,0.00,VWS V14.01,2013-01-04 00:41:00,
2013-01-03 19:46:00,16.5,12.2,29.95,East,90,0.0,0.0,83,0.00,,---,0.00,VWS V14.01,2013-01-04 00:46:00,
2013-01-03 19:51:00,16.7,12.7,29.95,WNW,292,0.0,0.0,84,0.00,,---,0.00,VWS V14.01,2013-01-04 00:51:00,
2013-01-03 19:56:00,16.7,12.7,29.95,NW,315,0.0,0.0,84,0.00,,---,0.00,VWS V14.01,2013-01-04 00:56:00,
2013-01-03 20:01:00,16.8,12.8,29.94,NNE,22,0.0,0.0,84,0.00,,---,0.00,VWS V14.01,2013-01-04 01:01:00,
2013-01-03 20:06:00,16.8,12.8,29.94,East,90,0.0,0.0,84,0.00,,---,0.00,VWS V14.01,2013-01-04 01:06:00,
2013-01-03 20:11:00,17.2,13.2,29.95,North,0,0.0,0.0,84,0.00,,---,0.00,VWS V14.01,2013-01-04 01:11:00,
2013-01-03 20:16:00,17.2,13.2,29.94,NNE,22,0.0,0.0,84,0.00,,---,0.00,VWS V14.01,2013-01-04 01:16:00,
2013-01-03 20:21:00,17.4,13.4,29.94,North,0,0.0,0.0,84,0.00,,---,0.00,VWS V14.01,2013-01-04 01:21:00,
2013-01-03 20:26:00,17.4,13.4,29.94,NE,45,0.0,0.0,84,0.00,,---,0.00,VWS V14.01,2013-01-04 01:26:00,
2013-01-03 20:31:00,17.4,13.4,29.94,NW,315,0.0,0.0,84,0.00,,---,0.00,VWS V14.01,2013-01-04 01:31:00,
2013-01-03 20:36:00,17.7,13.7,29.94,West,270,0.0,0.0,84,0.00,,---,0.00,VWS V14.01,2013-01-04 01:36:00,
2013-01-03 20:41:00,17.7,13.7,29.94,WNW,292,0.0,0.0,84,0.00,,---,0.00,VWS V14.01,2013-01-04 01:41:00,
2013-01-03 20:46:00,17.7,13.7,29.94,NW,315,0.0,0.0,84,0.00,,---,0.00,VWS V14.01,2013-01-04 01:46:00,
2013-01-03 20:51:00,17.9,13.9,29.94,NW,315,0.0,0.0,84,0.00,,---,0.00,VWS V14.01,2013-01-04 01:51:00,
2013-01-03 20:56:00,18.1,14.1,29.94,North,0,0.0,0.0,84,0.00,,---,0.00,VWS V14.01,2013-01-04 01:56:00,
2013-01-03 21:01:00,18.1,14.1,29.94,NNW,338,0.0,0.0,84,0.00,,---,0.00,VWS V14.01,2013-01-04 02:01:00,
2013-01-03 21:06:00,18.3,14.3,29.94,SW,225,0.0,0.0,84,0.00,,---,0.00,VWS V14.01,2013-01-04 02:06:00,
2013-01-03 21:11:00,18.3,14.3,29.94,NNW,338,0.0,0.0,84,0.00,,---,0.00,VWS V14.01,2013-01-04 02:11:00,
2013-01-03 21:16:00,18.3,14.3,29.94,NNW,338,0.0,0.0,84,0.00,,---,0.00,VWS V14.01,2013-01-04 02:16:00,
2013-01-03 21:21:00,18.5,14.5,29.94,West,270,0.0,0.0,84,0.00,,---,0.00,VWS V14.01,2013-01-04 02:21:00,
2013-01-03 21:26:00,18.6,14.6,29.94,SE,135,0.0,0.0,84,0.00,,---,0.00,VWS V14.01,2013-01-04 02:26:00,
2013-01-03 21:31:00,18.6,14.6,29.94,WSW,248,0.0,0.0,84,0.00,,---,0.00,VWS V14.01,2013-01-04 02:31:00,
2013-01-03 21:36:00,18.6,14.6,29.94,West,270,0.0,0.0,84,0.00,,---,0.00,VWS V14.01,2013-01-04 02:36:00,
2013-01-03 21:42:00,18.8,14.8,29.94,WNW,292,0.0,0.0,84,0.00,,---,0.00,VWS V14.01,2013-01-04 02:42:00,
2013-01-03 21:47:00,19.0,15.0,29.93,NW,315,0.0,0.0,84,0.00,,---,0.00,VWS V14.01,2013-01-04 02:47:00,
2013-01-03 21:52:00,19.0,15.2,29.93,NNW,338,0.0,0.0,85,0.00,,---,0.00,VWS V14.01,2013-01-04 02:52:00,
2013-01-03 21:57:00,19.0,15.2,29.93,NNW,338,0.0,0.0,85,0.00,,---,0.00,VWS V14.01,2013-01-04 02:57:00,
2013-01-03 22:02:00,19.2,15.4,29.93,WNW,292,0.0,0.0,85,0.00,,---,0.00,VWS V14.01,2013-01-04 03:02:00,
2013-01-03 22:07:00,19.2,15.4,29.93,WNW,292,0.0,0.0,85,0.00,,---,0.00,VWS V14.01,2013-01-04 03:07:00,
2013-01-03 22:12:00,19.2,15.4,29.93,WNW,292,0.0,0.0,85,0.00,,---,0.00,VWS V14.01,2013-01-04 03:12:00,
2013-01-03 22:17:00,19.2,15.4,29.93,WNW,292,0.0,0.0,85,0.00,,---,0.00,VWS V14.01,2013-01-04 03:17:00,
2013-01-03 22:22:00,19.4,15.6,29.93,NNW,338,0.0,0.0,85,0.00,,---,0.00,VWS V14.01,2013-01-04 03:22:00,
2013-01-03 22:27:00,19.4,15.6,29.94,SSE,158,0.0,0.0,85,0.00,,---,0.00,VWS V14.01,2013-01-04 03:27:00,
2013-01-03 22:32:00,19.5,15.7,29.94,WNW,292,0.0,0.0,85,0.00,,---,0.00,VWS V14.01,2013-01-04 03:32:00,
2013-01-03 22:37:00,19.5,15.7,29.93,WNW,292,0.0,0.0,85,0.00,,---,0.00,VWS V14.01,2013-01-04 03:37:00,
2013-01-03 22:42:00,19.5,15.7,29.93,NW,315,0.0,0.0,85,0.00,,---,0.00,VWS V14.01,2013-01-04 03:42:00,
2013-01-03 22:47:00,19.5,15.7,29.93,West,270,0.0,0.0,85,0.00,,---,0.00,VWS V14.01,2013-01-04 03:47:00,
2013-01-03 22:52:00,19.7,15.9,29.93,West,270,0.0,0.0,85,0.00,,---,0.00,VWS V14.01,2013-01-04 03:52:00,
2013-01-03 22:57:00,19.7,15.9,29.93,North,0,0.0,0.0,85,0.00,,---,0.00,VWS V14.01,2013-01-04 03:57:00,
2013-01-03 23:02:00,19.7,15.9,29.93,WSW,248,0.0,0.0,85,0.00,,---,0.00,VWS V14.01,2013-01-04 04:02:00,
2013-01-03 23:07:00,19.9,16.1,29.92,WNW,292,0.0,0.0,85,0.00,,---,0.00,VWS V14.01,2013-01-04 04:07:00,
2013-01-03 23:12:00,19.9,16.1,29.92,NW,315,0.0,0.0,85,0.00,,---,0.00,VWS V14.01,2013-01-04 04:12:00,
2013-01-03 23:17:00,19.9,16.1,29.92,West,270,0.0,0.0,85,0.00,,---,0.00,VWS V14.01,2013-01-04 04:17:00,
2013-01-03 23:32:00,19.9,16.1,29.91,NW,315,0.0,0.0,85,0.00,,---,0.00,VWS V14.01,2013-01-04 04:32:00,
2013-01-03 23:37:00,20.1,16.3,29.91,NW,315,0.0,0.0,85,0.00,,---,0.00,VWS V14.01,2013-01-04 04:37:00,
2013-01-03 23:42:00,20.1,16.3,29.91,NW,315,0.0,0.0,85,0.00,,---,0.00,VWS V14.01,2013-01-04 04:42:00,
2013-01-03 23:47:00,20.1,16.3,29.91,WSW,248,0.0,0.0,85,0.00,,---,0.00,VWS V14.01,2013-01-04 04:47:00,
2013-01-03 23:52:00,20.3,16.5,29.91,WNW,292,0.0,0.0,85,0.00,,---,0.00,VWS V14.01,2013-01-04 04:52:00,
2013-01-03 23:57:00,20.3,16.5,29.91,NW,315,2.0,2.0,85,0.00,,---,0.00,VWS V14.01,2013-01-04 04:57:00,